Orbital Elements at Epoch 2459200.5 (2020-Dec-17.0) TDB
Reference: JPL 25 (heliocentric ecliptic J2000)
Element | Value | Uncertainty (1-sigma) | Units |
e | .1447013893644259 | 5.811e-08 | |
a | 2.563738241928008 | 1.3301e-08 | au |
q | 2.192761756354315 | 1.5376e-07 | au |
i | 14.7285833705355 | 5.3587e-06 | deg |
node | 206.4631533595323 | 1.8156e-05 | deg |
peri | 166.0388357767242 | 2.4417e-05 | deg |
M | 162.9686426110381 | 1.8415e-05 | deg |
tp | 2458521.748977668828 (2019-Feb-07.24897767) | 7.3841e-05 | TDB |
period | 1499.370456330178 4.11 | 1.1668e-05 3.195e-08 | d yr |
n | .2401007692796129 | 1.8685e-09 | deg/d |
Q | 2.934714727501701 | 1.5225e-08 | au |
|
| | Orbit Determination Parameters
Additional Information
|